{"data":{"norad_id":49442,"epoch":"2026-05-24T22:14:22.674048Z","epoch_age_seconds":85320,"freshness":"FRESH","line1":"1 49442U 21104AL  26144.92665132 -.00000154  00000+0  84310-5 0  9993","line2":"2 49442  53.2132 226.8814 0001211 100.4594 259.6535 15.08833345250428","mean_motion":15.08833345,"eccentricity":0.0001211,"inclination_deg":53.2132,"raan_deg":226.8814,"arg_perigee_deg":100.4594,"mean_anomaly_deg":259.6535,"bstar":8.431e-6,"rev_number":25042,"period_min":95.437975623477,"perigee_km":538.92597293301,"apogee_km":540.60148848999,"semimajor_km":6917.9007307115,"source":"CELESTRAK","updated_at":"2026-05-25T13:38:16.801842Z"}}